This is the latest recevied weather packets stored in our database for station/object OE2ATN. If no packets are shown the sender has not sent any weather packets the latest 1 day(s).
| Time | Temp. | Humidity | Pressure | Rain* | Wind** | Luminosity | Snow |
|---|---|---|---|---|---|---|---|
| 1778037617 | 6.67° C | 43% | 1017.3 hPa | 0 mm | - | - | - |
| 1778037315 | 6.11° C | 44% | 1017.4 hPa | 0 mm | - | - | - |
| 1778037016 | 6.11° C | 47% | 1017.4 hPa | 0 mm | - | - | - |
| 1778036116 | 6.11° C | 52% | 1017.3 hPa | 0 mm | - | - | - |
| 1778035816 | 6.11° C | 64% | 1017.4 hPa | 0 mm | - | - | - |
| 1778035517 | 6.67° C | 52% | 1017.3 hPa | 0 mm | - | - | - |
| 1778035215 | 6.11° C | 50% | 1017.3 hPa | 0 mm | - | - | - |
| 1778034915 | 6.11° C | 62% | 1017.5 hPa | 0 mm | - | - | - |
| 1778034615 | 6.67° C | 56% | 1017.4 hPa | 0 mm | - | - | - |
| 1778034315 | 6.67° C | 55% | 1017.6 hPa | 0 mm | - | - | - |
| 1778034014 | 6.11° C | 61% | 1017.8 hPa | 0 mm | - | - | - |
| 1778033714 | 6.67° C | 59% | 1017.6 hPa | 0 mm | - | - | - |
| 1778033415 | 6.67° C | 57% | 1017.4 hPa | 0 mm | - | - | - |
| 1778032815 | 6.11° C | 61% | 1017.3 hPa | 0 mm | - | - | - |
| 1778032515 | 6.11° C | 67% | 1017.2 hPa | 0 mm | - | - | - |
| 1778032214 | 6.67° C | 65% | 1017.3 hPa | 0 mm | - | - | - |
| 1778031914 | 6.67° C | 64% | 1017.3 hPa | 0 mm | - | - | - |
| 1778031612 | 6.67° C | 64% | 1017.3 hPa | 0 mm | - | - | - |
| 1778031313 | 6.67° C | 63% | 1017.5 hPa | 0 mm | - | - | - |
| 1778031012 | 6.67° C | 64% | 1017.5 hPa | 0 mm | - | - | - |
| 1778030709 | 6.67° C | 66% | 1017.5 hPa | 0 mm | - | - | - |
| 1778030106 | 6.11° C | 68% | 1017.3 hPa | 0 mm | - | - | - |
| 1778029806 | 6.67° C | 68% | 1017.4 hPa | 0 mm | - | - | - |
| 1778029207 | 6.67° C | 68% | 1017.2 hPa | 0 mm | - | - | - |
| 1778028907 | 6.67° C | 69% | 1017.2 hPa | 0 mm | - | - | - |
* Rain latest hour (hover to see other rain measurements)
** Current wind speed in m/s (hover to see current wind gust speed)